Location: Fort Worth, Tx
(32.7431°N, 97.3695°W)
Time: 05:54:23
(UTC-05:00)

Altair - Pass Details

Date: 08 October 2023
Orbit: 1501 x 1682 km, 47.2° (Epoch: 06 December)

Event Time Altitude Azimuth Distance (km) Brightness Sun altitude
Rises 07:37:28 0° 305° (NW) 4,849 - -11.5°
Exits shadow 07:38:31 - 307° (NW) 4,531 9.5 -11.3°
Reaches altitude 10° 07:40:42 10° 310° (NW) 3,883 9.2 -10.8°
Maximum altitude 07:50:29 55° 27° (NNE) 1,951 8.2 -8.8°
Drops below altitude 10° 08:00:23 10° 104° (ESE) 3,940 11.3 -6.7°
Sets 08:03:40 0° 109° (ESE) 4,923 12.0 -6.0°
